Location: Seasalter
(51.3333°N, 1.0167°E)
Time: 11:41:52
(UTC+00:00)

USA 215 - Pass Details

Date: 26 September 2023
Orbit: 1098 x 1109 km, 123.0° (Epoch: 06 December)

Event Time Altitude Azimuth Distance (km) Brightness Sun altitude
Rises 01:42:11 0° 116° (ESE) 3,907 6.3 -34.3°
Reaches altitude 10° 01:44:39 10° 116° (ESE) 2,952 5.6 -34.0°
Enters shadow 01:48:22 38° 116° (ESE) 1,621 4.1 -33.7°
